Snowfall_Accumulation
nan nan nan nan nan nan nan 0.0 0.8 0.0 0.0 1.0 0.2 0.6 0.0 nan 0.0 0.0 0.0 0.0 0.0 0.0 0.0 0.9 1.7 1.3 1.2 0.0 0.0 0.1 0.0 0.3 1.9 0.2 0.0 0.0 0.4 0.7 0.4 5.9 4.0 3.2 3.8 14.5
nan nan nan nan nan nan 0.0 0.0 0.0 0.0 0.0 2.6 0.3 0.0 0.0 0.0 0.0 0.0 0.0 0.0 0.0 0.0 0.0 0.5 0.1 0.1 0.0 0.0 0.0 0.0 0.0 0.4 1.3 1.2 0.5 0.0 0.3 0.2 0.1 0.0 1.1 4.2 11.0 19.7
nan nan nan nan nan nan 0.0 0.0 1.3 0.1 0.0 0.0 0.0 0.0 0.0 0.0 0.0 0.0 0.0 0.0 0.0 0.0 0.0 0.0 0.0 0.1 0.0 0.0 0.0 nan nan 0.0 0.0 0.9 0.8 0.2 0.5 0.3 0.2 0.3 6.9 3.4 11.0 8.4
nan nan nan nan nan nan 0.0 0.0 0.3 0.0 1.3 0.0 0.0 0.0 0.0 0.0 0.0 0.0 0.0 0.0 0.0 0.0 0.1 0.0 0.0 0.0 0.1 0.0 nan 0.0 0.0 0.1 0.0 0.0 0.0 0.0 0.0 0.0 0.0 3.1 0.9 6.8 4.5 3.6
nan nan nan nan nan nan 0.0 0.0 0.1 0.0 0.0 0.0 0.0 0.0 0.0 0.0 0.0 0.0 0.0 0.0 0.0 0.0 0.1 0.0 0.1 0.1 0.0 0.1 0.1 0.7 0.1 0.2 0.0 0.1 0.0 0.0 0.0 0.0 0.0 0.0 0.1 0.1 0.1 1.2
nan nan nan nan nan nan 0.0 0.0 0.0 0.0 nan 0.0 0.0 0.2 0.0 0.0 0.0 0.0 0.0 0.0 0.0 0.0 0.0 0.0 0.0 0.0 0.0 0.0 0.1 0.1 0.2 0.2 0.1 2.4 0.0 0.0 0.5 0.0 0.1 0.0 0.0 0.0 0.6 0.3
nan nan nan nan nan nan 0.0 0.0 0.0 0.0 0.0 0.0 0.1 0.0 0.0 0.0 0.0 0.0 0.0 0.0 0.0 0.0 0.0 0.0 0.0 0.0 0.0 0.0 0.0 0.0 0.1 0.0 0.0 1.8 0.1 2.2 0.4 0.0 0.0 0.0 0.0 0.0 0.0 0.0
nan nan nan nan nan nan 0.0 0.0 0.0 0.0 0.0 0.0 0.0 0.0 0.0 0.0 0.0 0.0 0.0 0.0 0.0 0.0 0.0 0.0 0.0 0.0 0.0 0.0 0.0 0.0 0.0 0.0 0.5 1.5 1.9 0.2 0.0 0.0 0.0 0.0 0.0 0.0 0.0 0.0
nan nan nan nan nan nan 0.0 0.0 0.0 0.0 0.0 0.0 0.0 0.0 0.0 0.0 0.0 0.0 0.0 0.0 0.0 0.0 0.0 0.0 0.2 0.5 0.0 0.0 0.0 0.0 0.0 0.0 0.0 0.4 0.9 1.3 0.0 0.0 0.0 0.0 0.1 0.0 0.0 0.0
nan nan nan nan nan nan 0.0 0.0 0.0 0.0 0.0 0.0 0.0 0.0 0.0 0.0 0.0 0.0 0.0 0.0 0.0 0.0 0.0 0.3 0.3 0.1 0.0 0.0 0.0 0.0 0.0 0.1 0.4 0.4 0.7 0.1 0.0 0.0 0.0 0.0 0.0 0.0 0.0 0.0
nan nan nan nan nan nan 0.0 0.0 0.0 0.0 0.0 0.0 0.0 0.0 0.0 0.0 0.0 0.2 0.0 0.1 0.0 0.0 0.1 0.2 0.0 0.0 0.0 0.0 0.0 0.0 0.0 0.2 0.6 0.2 0.2 3.0 0.0 0.0 0.0 0.0 0.0 0.0 0.0 0.0
nan nan nan nan nan nan nan 0.0 0.0 0.0 0.0 0.0 0.0 0.0 0.0 0.0 0.0 0.0 0.0 0.1 0.2 0.0 0.0 0.0 0.0 0.0 0.0 0.0 0.3 0.0 0.2 0.0 0.0 0.0 0.0 0.0 0.0 0.0 0.0 0.0 0.0 0.0 0.0 0.0
nan nan nan nan nan nan nan 0.0 0.0 0.0 0.0 0.0 0.0 0.0 0.0 0.0 0.0 0.0 0.0 0.0 0.0 0.1 0.0 0.1 0.0 0.0 0.0 0.0 0.0 0.0 0.0 0.0 0.0 0.0 0.0 0.0 0.0 0.0 0.0 0.0 0.0 0.0 0.0 0.0
nan nan nan nan nan nan nan 0.0 0.0 0.0 0.0 0.2 0.0 0.0 0.0 0.0 0.0 0.0 0.0 0.0 0.0 0.0 0.0 0.0 0.0 0.1 0.0 0.0 0.0 0.0 0.0 0.0 0.0 0.0 0.0 0.0 0.0 0.0 0.0 0.0 0.0 0.0 0.0 0.0
nan nan nan nan nan nan nan 0.0 0.0 0.0 0.0 0.3 0.0 0.0 0.0 0.0 0.0 0.0 0.0 0.0 0.0 0.0 0.0 0.0 0.0 0.0 0.0 0.0 0.0 0.0 0.0 0.0 0.0 0.0 0.0 0.0 0.0 0.0 0.0 0.0 0.0 0.0 0.0 0.0
nan nan nan nan nan nan 0.0 0.0 0.0 0.0 0.0 0.6 0.6 0.0 0.0 0.0 0.0 0.0 0.0 0.0 0.0 0.0 0.0 0.0 0.0 0.0 0.0 0.5 0.1 0.0 0.0 0.0 0.0 0.0 0.0 0.0 0.0 0.0 0.0 0.0 0.0 0.0 0.0 0.0
nan nan nan nan nan 0.0 0.0 0.0 0.0 nan 0.0 0.2 1.2 0.2 0.0 0.0 0.0 0.0 0.0 0.0 0.0 0.0 0.0 0.0 0.0 0.0 0.0 0.0 0.3 0.0 0.0 0.0 0.0 0.0 0.0 0.0 0.0 0.0 0.0 0.0 0.0 0.0 0.0 0.0
nan nan nan nan nan nan 0.0 0.0 nan nan 0.0 0.0 4.7 0.5 0.0 0.0 0.0 0.0 0.0 0.0 0.0 0.0 0.0 0.0 0.0 0.0 0.0 0.4 0.0 0.0 0.0 0.0 0.0 0.0 0.0 0.0 0.0 0.0 0.0 0.0 0.0 0.0 0.0 0.0
nan nan nan 0.0 0.0 0.0 0.0 nan nan 0.0 0.1 1.5 1.4 2.0 4.1 0.0 0.1 0.0 0.0 0.0 0.5 0.0 0.1 0.0 0.0 0.0 0.9 0.0 0.0 0.0 0.0 0.0 0.0 0.0 0.0 0.0 0.0 0.0 0.0 0.0 0.0 0.0 0.0 0.0
nan 0.0 0.0 1.5 0.0 nan nan 0.0 0.4 0.6 0.2 0.1 0.6 0.2 1.0 0.0 0.0 0.2 0.2 0.1 0.9 5.3 0.3 0.0 0.3 0.2 0.0 0.0 0.0 0.0 0.0 0.0 0.0 0.0 0.1 0.0 0.1 0.0 0.0 0.0 0.0 0.0 0.0 0.0
0.0 0.8 1.1 0.0 nan 0.0 0.1 2.8 2.4 0.6 0.9 0.1 0.2 0.3 1.0 0.0 1.9 1.5 0.2 2.9 1.5 7.2 0.7 1.4 2.0 0.9 0.3 0.0 0.0 0.0 0.0 0.0 0.0 0.0 0.0 0.0 0.0 0.0 0.0 0.0 0.0 0.0 0.0 0.0
0.0 0.0 0.0 0.0 1.4 4.7 6.2 5.3 2.6 1.5 2.9 0.5 1.0 0.7 0.3 0.3 0.1 1.4 3.0 3.2 4.7 7.1 0.0 3.8 4.1 0.4 0.1 0.0 0.0 0.0 0.0 0.0 0.0 0.0 0.0 0.0 0.0 0.0 0.0 0.0 0.0 0.0 0.0 0.0
0.0 0.8 6.4 5.3 7.9 38.7 9.3 10.4 10.3 8.8 1.8 1.5 1.1 2.2 0.2 0.2 0.2 1.1 1.5 9.0 7.1 0.0 7.8 0.8 0.4 0.1 0.0 0.1 0.1 0.0 0.0 0.0 0.0 0.0 0.0 0.0 0.0 0.0 0.0 0.0 0.0 0.0 0.0 0.0
2.6 15.3 49.2 10.4 10.8 1.8 3.2 2.5 3.1 1.2 1.9 1.3 0.9 3.2 1.5 0.2 2.5 1.0 6.2 0.3 1.1 8.8 7.2 3.4 0.4 0.1 0.0 0.0 0.1 0.1 0.1 0.1 0.2 0.1 0.1 0.1 0.1 0.1 0.0 0.0 0.0 0.0 0.0 0.0
14.8 10.2 30.2 8.1 0.9 1.8 1.9 1.7 1.5 0.9 0.5 1.2 2.1 2.5 1.1 5.5 6.7 1.3 2.5 6.8 8.7 2.0 2.9 1.4 0.5 0.2 0.1 0.3 0.2 0.3 0.4 1.1 2.0 1.7 2.0 1.9 1.2 0.8 0.8 0.3 0.2 0.1 0.1 0.1
13.9 14.4 9.6 0.5 3.5 5.6 3.8 3.9 2.8 0.8 0.6 0.7 2.0 5.8 8.1 7.7 5.4 7.2 7.3 10.5 6.5 3.5 2.3 1.8 1.5 1.1 1.0 0.8 0.3 0.3 0.2 0.3 0.4 0.2 0.3 0.3 0.3 0.5 0.8 0.6 0.7 0.5 0.6 0.9
24.5 18.3 0.3 1.4 2.7 2.6 1.1 0.7 0.6 0.0 0.8 5.0 4.4 7.8 7.3 4.8 8.8 8.2 6.2 11.5 2.9 1.9 1.2 1.4 0.8 1.7 1.7 2.2 1.8 1.5 1.0 0.7 0.5 0.3 0.2 0.3 0.2 0.5 0.6 0.5 0.4 0.6 0.7 2.2
Water_Equivalent
nan nan nan nan nan nan nan 0.00 0.27 0.00 0.00 0.41 0.07 0.20 0.00 nan 0.00 0.00 0.00 0.00 0.00 0.00 0.01 0.20 0.34 0.27 0.29 0.00 0.00 0.03 0.01 0.07 0.42 0.05 0.00 0.00 0.08 0.14 0.07 1.05 0.56 0.67 0.59 1.83
nan nan nan nan nan nan 0.00 0.00 0.00 0.00 0.00 0.74 0.13 0.00 0.00 0.00 0.00 0.00 0.00 0.00 0.00 0.00 0.00 0.11 0.02 0.03 0.00 0.00 0.00 0.01 0.01 0.09 0.27 0.23 0.11 0.00 0.07 0.04 0.02 0.00 0.25 0.68 1.49 2.48
nan nan nan nan nan nan 0.00 0.00 0.49 0.03 0.00 0.00 0.00 0.00 0.00 0.00 0.00 0.00 0.00 0.00 0.00 0.00 0.00 0.00 0.01 0.01 0.01 0.00 0.00 nan nan 0.00 0.01 0.19 0.10 0.05 0.10 0.06 0.04 0.06 1.21 0.50 1.56 1.28
nan nan nan nan nan nan 0.00 0.00 0.13 0.02 0.40 0.01 0.00 0.01 0.00 0.00 0.00 0.00 0.00 0.00 0.00 0.00 0.01 0.00 0.00 0.01 0.02 0.01 nan 0.00 0.00 0.03 0.00 0.00 0.00 0.01 0.00 0.00 0.01 0.68 0.16 1.01 0.73 0.67
nan nan nan nan nan nan 0.00 0.01 0.06 0.00 0.00 0.00 0.00 0.00 0.00 0.00 0.00 0.00 0.00 0.00 0.00 0.00 0.01 0.00 0.02 0.03 0.00 0.03 0.03 0.16 0.03 0.04 0.01 0.02 0.00 0.00 0.01 0.00 0.00 0.00 0.03 0.03 0.02 0.25
nan nan nan nan nan nan 0.00 0.00 0.00 0.00 nan 0.00 0.01 0.04 0.01 0.00 0.00 0.00 0.00 0.00 0.00 0.00 0.00 0.00 0.00 0.00 0.00 0.00 0.03 0.03 0.04 0.05 0.02 0.46 0.00 0.00 0.11 0.01 0.01 0.01 0.00 0.00 0.13 0.05
nan nan nan nan nan nan 0.00 0.00 0.00 0.00 0.00 0.00 0.01 0.00 0.00 0.00 0.00 0.00 0.00 0.00 0.00 0.00 0.00 0.00 0.00 0.00 0.00 0.00 0.00 0.00 0.03 0.01 0.00 0.35 0.03 0.41 0.07 0.00 0.00 0.00 0.00 0.00 0.00 0.00
nan nan nan nan nan nan 0.00 0.00 0.00 0.00 0.00 0.00 0.00 0.00 0.00 0.00 0.00 0.00 0.00 0.00 0.00 0.00 0.00 0.00 0.00 0.00 0.00 0.00 0.00 0.00 0.00 0.00 0.09 0.30 0.31 0.03 0.00 0.00 0.00 0.00 0.00 0.00 0.00 0.00
nan nan nan nan nan nan 0.00 0.00 0.00 0.00 0.00 0.00 0.00 0.00 0.00 0.00 0.00 0.00 0.00 0.00 0.00 0.00 0.00 0.00 0.05 0.16 0.00 0.00 0.00 0.00 0.00 0.00 0.00 0.12 0.16 0.23 0.00 0.00 0.00 0.00 0.03 0.00 0.00 0.00
nan nan nan nan nan nan 0.00 0.00 0.00 0.00 0.00 0.00 0.00 0.00 0.01 0.00 0.01 0.00 0.00 0.00 0.00 0.00 0.00 0.13 0.12 0.02 0.00 0.00 0.00 0.00 0.00 0.02 0.10 0.09 0.15 0.03 0.00 0.00 0.00 0.01 0.00 0.00 0.00 0.00
nan nan nan nan nan nan 0.00 0.00 0.00 0.00 0.00 0.00 0.00 0.00 0.00 0.00 0.00 0.04 0.00 0.04 0.00 0.00 0.03 0.07 0.00 0.00 0.00 0.00 0.00 0.00 0.00 0.06 0.14 0.05 0.05 0.62 0.00 0.00 0.01 0.00 0.00 0.00 0.00 0.00
nan nan nan nan nan nan nan 0.00 0.00 0.00 0.00 0.00 0.00 0.00 0.00 0.00 0.00 0.00 0.00 0.02 0.04 0.01 0.01 0.00 0.00 0.00 0.00 0.00 0.05 0.00 0.03 0.00 0.00 0.00 0.01 0.00 0.00 0.00 0.00 0.00 0.00 0.00 0.00 0.00
nan nan nan nan nan nan nan 0.00 0.00 0.00 0.00 0.00 0.00 0.00 0.00 0.00 0.00 0.00 0.00 0.00 0.00 0.02 0.00 0.02 0.00 0.00 0.00 0.00 0.00 0.00 0.00 0.00 0.00 0.00 0.00 0.00 0.00 0.00 0.00 0.00 0.00 0.00 0.00 0.00
nan nan nan nan nan nan nan 0.00 0.00 0.00 0.00 0.05 0.00 0.00 0.00 0.00 0.00 0.00 0.00 0.00 0.00 0.00 0.00 0.00 0.00 0.02 0.00 0.00 0.00 0.00 0.00 0.00 0.00 0.00 0.00 0.00 0.00 0.00 0.00 0.00 0.00 0.00 0.00 0.00
nan nan nan nan nan nan nan 0.00 0.00 0.00 0.01 0.07 0.00 0.00 0.00 0.00 0.00 0.00 0.00 0.00 0.00 0.00 0.00 0.00 0.00 0.00 0.00 0.00 0.00 0.01 0.00 0.00 0.00 0.01 0.00 0.00 0.00 0.00 0.00 0.00 0.00 0.00 0.00 0.00
nan nan nan nan nan nan 0.00 0.00 0.00 0.00 0.00 0.18 0.23 0.00 0.00 0.00 0.00 0.00 0.00 0.00 0.00 0.00 0.00 0.00 0.00 0.00 0.00 0.18 0.06 0.00 0.00 0.00 0.00 0.00 0.00 0.00 0.00 0.00 0.00 0.00 0.00 0.00 0.00 0.00
nan nan nan nan nan 0.00 0.00 0.00 0.00 nan 0.00 0.07 0.44 0.08 0.00 0.00 0.00 0.00 0.00 0.00 0.00 0.00 0.00 0.00 0.00 0.00 0.00 0.00 0.11 0.00 0.00 0.00 0.00 0.00 0.00 0.00 0.00 0.00 0.00 0.00 0.00 0.00 0.00 0.00
nan nan nan nan nan nan 0.00 0.00 nan nan 0.00 0.00 1.76 0.21 0.00 0.00 0.01 0.00 0.00 0.00 0.00 0.00 0.00 0.00 0.00 0.00 0.00 0.16 0.00 0.00 0.00 0.00 0.00 0.00 0.00 0.00 0.00 0.00 0.00 0.00 0.00 0.00 0.00 0.00
nan nan nan 0.00 0.00 0.00 0.00 nan nan 0.00 0.04 0.44 0.50 0.65 1.26 0.00 0.02 0.00 0.00 0.00 0.17 0.00 0.02 0.00 0.00 0.00 0.37 0.00 0.00 0.00 0.00 0.00 0.00 0.00 0.00 0.00 0.00 0.00 0.00 0.00 0.00 0.00 0.00 0.00
nan 0.00 0.00 0.45 0.00 nan nan 0.00 0.16 0.22 0.06 0.06 0.15 0.04 0.26 0.01 0.01 0.07 0.07 0.04 0.32 1.93 0.14 0.00 0.11 0.08 0.00 0.00 0.00 0.00 0.00 0.00 0.00 0.00 0.02 0.01 0.02 0.00 0.00 0.00 0.00 0.00 0.00 0.00
0.00 0.24 0.37 0.00 nan 0.00 0.04 0.72 0.57 0.18 0.29 0.02 0.05 0.07 0.17 0.00 0.54 0.44 0.07 0.91 0.57 1.74 0.22 0.37 0.58 0.26 0.08 0.00 0.00 0.00 0.00 0.00 0.00 0.00 0.00 0.00 0.00 0.00 0.00 0.00 0.00 0.00 0.00 0.00
0.00 0.00 0.00 0.00 0.38 1.13 1.36 1.30 0.83 0.44 0.86 0.16 0.24 0.19 0.09 0.11 0.05 0.42 0.79 0.86 1.14 1.21 0.01 0.88 0.76 0.12 0.02 0.00 0.00 0.00 0.00 0.00 0.00 0.00 0.00 0.00 0.00 0.00 0.00 0.00 0.00 0.00 0.00 0.00
0.00 0.24 1.66 1.14 1.81 5.41 1.78 1.53 2.06 1.92 0.54 0.55 0.41 0.70 0.06 0.09 0.08 0.39 0.41 1.81 1.37 0.00 1.51 0.14 0.09 0.03 0.01 0.02 0.02 0.00 0.00 0.00 0.00 0.00 0.00 0.00 0.00 0.00 0.00 0.00 0.00 0.00 0.00 0.00
0.75 3.91 7.73 2.09 2.06 0.49 0.79 0.55 0.70 0.36 0.62 0.42 0.27 0.85 0.41 0.08 0.64 0.24 1.50 0.12 0.28 1.49 1.09 0.55 0.08 0.03 0.00 0.00 0.02 0.02 0.04 0.04 0.06 0.03 0.02 0.03 0.02 0.02 0.01 0.01 0.01 0.01 0.01 0.00
3.84 2.57 4.34 1.79 0.29 0.56 0.56 0.55 0.51 0.33 0.21 0.37 0.51 0.64 0.25 1.31 1.39 0.23 0.65 1.10 1.39 0.37 0.49 0.33 0.13 0.05 0.03 0.07 0.06 0.07 0.10 0.23 0.40 0.39 0.43 0.41 0.26 0.18 0.17 0.08 0.04 0.03 0.02 0.01
3.86 3.31 1.85 0.09 0.89 1.35 1.00 1.28 0.89 0.30 0.20 0.25 0.57 1.30 1.49 1.38 1.04 1.25 1.21 1.58 0.88 0.64 0.52 0.46 0.36 0.24 0.21 0.17 0.07 0.06 0.04 0.06 0.07 0.05 0.06 0.07 0.07 0.11 0.16 0.12 0.14 0.11 0.13 0.18
5.66 3.66 0.07 0.35 0.68 0.69 0.30 0.22 0.20 0.00 0.26 1.20 1.00 1.25 1.20 0.95 1.35 1.21 1.15 1.82 0.57 0.41 0.27 0.28 0.16 0.32 0.33 0.39 0.31 0.27 0.17 0.12 0.09 0.05 0.04 0.05 0.03 0.07 0.08 0.06 0.07 0.10 0.14 0.36
SL_Ratio
nan nan nan nan nan nan nan nan 2.9 nan nan 2.5 2.5 2.8 nan nan nan nan nan nan nan nan 3.7 4.7 5.0 5.0 4.2 nan nan 4.1 3.1 4.5 4.4 4.2 nan 3.8 4.3 4.9 5.4 5.6 7.1 4.7 6.4 7.9
nan nan nan nan nan nan nan nan 2.5 nan nan 3.5 2.8 nan nan nan nan nan nan nan nan nan nan 5.1 3.7 3.8 3.0 nan nan 4.3 4.2 4.2 4.9 5.2 4.7 nan 5.0 4.9 4.9 5.4 4.5 6.2 7.4 7.9
nan nan nan nan nan nan nan 2.3 2.7 2.5 nan nan nan nan nan nan nan nan nan nan nan nan nan nan 4.6 4.1 3.3 nan nan nan nan nan 3.8 4.8 7.4 4.9 4.8 5.6 4.6 5.2 5.7 6.8 7.1 6.6
nan nan nan nan nan nan nan nan 2.6 2.5 3.2 2.7 nan 2.6 nan nan nan nan nan nan nan nan 4.2 nan 3.9 3.5 3.8 3.5 nan nan 4.2 4.5 nan nan nan 5.0 3.6 4.3 4.6 4.5 5.5 6.7 6.1 5.5
nan nan nan nan nan nan nan 2.5 2.6 nan nan nan nan 2.5 nan 2.9 nan nan nan nan nan nan 3.9 nan 3.8 3.6 3.8 3.9 3.7 4.1 4.0 4.9 4.4 4.2 nan nan 2.9 nan nan nan 4.1 4.5 5.0 4.5
nan nan nan nan nan nan nan nan nan nan nan nan 3.9 3.6 3.2 nan nan nan nan nan nan nan nan nan nan nan nan nan 3.7 4.4 4.2 4.4 4.5 5.2 nan 5.0 4.4 5.6 5.2 4.2 nan 4.3 5.1 5.1
nan nan nan nan nan nan nan nan nan nan 3.1 nan 3.8 nan nan nan nan 0.0 nan nan nan nan nan nan nan nan nan nan nan nan 4.1 3.8 nan 5.2 4.8 5.4 5.4 nan nan nan nan nan nan nan
nan nan nan nan nan nan nan nan nan nan 3.3 nan nan nan nan nan nan nan nan nan nan nan nan nan nan nan nan nan nan nan nan nan 4.9 5.0 6.0 6.0 nan nan nan nan 5.4 nan nan nan
nan nan nan nan nan nan nan nan nan nan nan nan nan nan nan 4.0 nan 4.0 nan nan nan nan nan 2.9 5.1 3.3 nan 5.0 4.2 nan nan nan 5.0 3.0 5.8 5.6 nan nan nan nan 3.7 nan nan nan
nan nan nan nan nan nan nan nan nan nan nan nan nan nan 4.4 nan 4.1 nan nan 0.0 nan nan nan 2.8 2.9 3.0 nan 3.1 nan 10.0 8.3 4.1 4.3 4.1 4.5 4.1 nan nan nan 5.2 4.6 nan nan 0.0
nan nan nan nan nan nan nan nan nan nan nan nan nan nan nan nan nan 4.1 nan 3.6 nan nan 2.7 2.9 nan nan nan nan 2.0 nan 4.4 2.9 4.3 3.4 3.7 4.9 nan nan 5.2 4.3 0.0 nan 3.0 5.0
nan nan nan nan nan nan nan nan nan nan nan nan nan nan nan nan nan nan nan 4.2 3.8 3.5 4.3 nan nan nan nan nan 6.0 nan 5.8 nan nan 2.5 3.6 nan nan nan nan nan nan nan 0.0 nan
nan nan nan nan nan nan nan nan nan nan nan nan nan nan nan nan nan nan nan nan nan 3.3 nan 4.2 nan 4.4 nan nan nan nan nan nan nan nan nan nan nan nan nan nan nan nan nan nan
nan nan nan nan nan nan nan nan nan nan nan 4.3 nan nan nan nan nan nan nan nan nan nan nan 3.6 4.2 3.6 nan nan nan nan nan nan nan nan nan nan nan nan nan nan nan nan nan nan
nan nan nan nan nan nan nan nan nan nan 2.7 3.7 5.0 nan nan nan nan nan nan nan nan nan nan nan nan nan 1.7 nan 5.0 8.8 nan nan nan 4.4 nan nan nan nan nan nan nan nan nan nan
nan nan nan nan nan nan nan nan nan nan nan 3.5 2.7 nan nan nan nan nan nan nan nan nan 0.0 nan 1.7 2.0 nan 2.5 2.5 nan nan nan nan nan nan nan nan nan nan nan nan nan nan nan
nan nan nan nan nan nan nan 2.5 nan nan nan 3.1 2.7 2.5 nan nan nan nan nan nan nan nan nan 5.0 3.0 2.5 5.0 10.0 2.5 nan nan nan nan nan nan nan nan nan nan nan nan nan nan nan
nan nan nan nan nan nan nan nan nan nan nan 2.9 2.7 2.5 nan nan 3.8 7.5 nan nan nan 5.0 5.0 nan 7.5 nan nan 2.5 nan nan nan nan nan nan nan nan nan nan nan nan nan nan nan nan
nan nan nan nan nan nan nan nan nan nan 2.9 3.5 2.9 3.1 3.3 nan 3.6 5.0 10.0 5.0 2.8 nan 2.9 10.0 nan 2.5 2.5 nan nan nan nan nan nan nan nan nan nan nan nan nan nan nan nan nan
nan nan 3.6 3.3 nan nan nan 2.5 2.6 2.8 2.5 2.6 3.9 4.6 3.9 4.7 3.9 2.6 3.2 2.8 2.9 2.7 2.5 3.0 2.5 2.5 nan nan nan nan nan nan nan 2.5 2.5 2.5 2.5 2.5 nan nan nan nan nan nan
nan 3.2 3.1 nan nan nan 2.7 3.8 4.2 3.2 3.3 4.1 4.4 4.3 5.6 nan 3.5 3.4 2.5 3.2 2.6 4.1 3.2 3.7 3.3 3.6 3.2 nan nan nan nan nan nan nan nan nan nan nan nan nan nan nan nan nan
nan 2.5 nan 0.0 3.8 4.2 4.5 4.1 3.1 3.3 3.3 3.2 4.2 3.7 3.7 2.7 2.5 3.5 3.8 3.7 4.1 5.9 2.8 4.3 5.3 3.7 4.4 4.4 0.0 nan nan nan nan nan nan nan nan nan nan nan 3.0 nan nan nan
nan 3.4 3.8 4.7 4.4 7.2 5.2 6.8 5.0 4.6 3.3 2.7 2.8 3.2 2.5 2.8 2.7 2.7 3.6 5.0 5.2 3.0 5.1 5.6 4.8 3.9 4.4 4.6 4.5 4.0 nan nan nan nan nan nan nan nan nan 2.5 nan 5.0 0.0 nan
3.5 3.9 6.4 5.0 5.2 3.7 4.0 4.5 4.4 3.3 3.0 3.2 3.5 3.8 3.6 2.7 3.8 4.1 4.1 2.8 4.1 5.9 6.6 6.2 4.7 4.2 4.5 3.8 3.8 3.6 3.3 3.2 3.3 3.5 3.5 3.3 3.2 3.6 3.6 3.8 3.9 4.8 5.0 5.0
3.9 4.0 7.0 4.5 3.2 3.2 3.3 3.0 3.0 2.8 2.6 3.2 4.1 3.9 4.5 4.2 4.8 5.5 3.8 6.2 6.2 5.5 5.9 4.3 4.1 4.0 4.0 4.1 3.8 3.8 4.0 4.9 4.9 4.4 4.6 4.6 4.5 4.3 4.4 4.1 4.1 4.1 4.5 4.9
3.6 4.4 5.2 5.2 3.9 4.1 3.8 3.1 3.2 2.6 2.8 2.9 3.4 4.4 5.4 5.5 5.2 5.8 6.0 6.7 7.4 5.4 4.5 4.0 4.2 4.7 4.7 4.5 4.4 4.5 4.6 5.1 5.0 4.7 4.5 4.6 4.7 4.6 5.0 4.5 4.8 4.5 4.3 5.2
4.3 5.0 3.7 3.9 4.0 3.9 3.8 3.4 3.3 2.5 3.1 4.2 4.4 6.2 6.1 5.1 6.6 6.8 5.4 6.3 5.0 4.6 4.6 5.0 4.8 5.2 5.1 5.6 5.8 5.7 6.0 6.0 5.8 5.3 5.7 6.0 6.5 7.2 7.5 7.6 5.5 5.9 5.3 6.0